Change the Weather History Date:

Friday, September 26, 2014

  Actual Average Record
Temperature  
Mean Temperature 68 °F 64 °F  
Max Temperature 78 °F 75 °F 95 °F (1930)
Min Temperature 58 °F 54 °F 38 °F (1950)
Degree Days  
Heating Degree Days 0 3  
Month to date heating degree days 6 30  
Since 1 July heating degree days 6 32  
Cooling Degree Days 3 2  
Month to date cooling degree days 201 134  
Year to date cooling degree days 1323 1117  
Growing Degree Days 18 (Base 50)    
Moisture  
Dew Point 57 °F    
Average Humidity 67    
Maximum Humidity 90    
Minimum Humidity 43    
Precipitation  
Precipitation 0.00 in 0.13 in 2.41 in (1985)
Month to date precipitation 4.38 3.44  
Year to date precipitation 24.66 34.51  
Snow  
Snow 0.00 in 0.00 in 0.00 in (2002)
Month to date snowfall 0.0 0.0  
Since 1 July snowfall 0.0 0.0  
Snow Depth 0.00 in    
Sea Level Pressure  
Sea Level Pressure 30.20 in    
Wind  
Wind Speed 5 mph (North)    
Max Wind Speed 14 mph    
Max Gust Speed 17 mph    
Visibility 9 miles    
Events      
T = Trace of Precipitation, MM = Missing Value Source: NWS Daily Summary

Daily Weather History Graph

Daily Weather History Graph

Search for Another Location

Airport or City:

Trip Planner

Search our weather history database for the weather conditions in past years. The results will help you decide how hot, cold, wet, or windy it might be!

Date:

Astronomy

Sep. 26, 2014 Rise Set
Actual Time 6:53 AM EDT 6:52 PM EDT
Civil Twilight 6:26 AM EDT 7:19 PM EDT
Nautical Twilight 5:56 AM EDT 7:49 PM EDT
Astronomical Twilight 5:25 AM EDT 8:20 PM EDT
Moon 9:04 AM EDT (9/26) 8:13 PM EDT (9/26)
Length of Visible Light 12h 52m
Length of Day
11h 59m
Waxing Crescent, 6% of the Moon is Illuminated
Sep 26
Waxing Crescent
Oct 1
First Quarter
Oct 8
Full
Oct 15
Last Quarter
Oct 23
New

Hourly Weather History & Observations

Time (EDT) Temp. Dew Point Humidity Pressure Visibility Wind Dir Wind Speed Gust Speed Precip Events Conditions
12:42 AM 64.4 °F 60.8 °F 88% 30.20 in 7.0 mi North 8.1 mph - N/A   Overcast
12:54 AM 64.0 °F 60.1 °F 87% 30.21 in 7.0 mi North 6.9 mph - N/A   Overcast
1:54 AM 64.0 °F 59.0 °F 84% 30.21 in 8.0 mi North 6.9 mph - N/A   Overcast
2:54 AM 63.0 °F 59.0 °F 87% 30.21 in 7.0 mi North 5.8 mph - N/A   Overcast
3:15 AM 62.6 °F 59.0 °F 88% 30.20 in 7.0 mi North 6.9 mph - N/A   Overcast
3:30 AM 62.6 °F 57.2 °F 82% 30.20 in 7.0 mi North 5.8 mph - N/A   Mostly Cloudy
3:54 AM 62.1 °F 57.9 °F 86% 30.20 in 7.0 mi North 6.9 mph - N/A   Mostly Cloudy
4:11 AM 60.8 °F 57.2 °F 88% 30.19 in 7.0 mi NNW 6.9 mph - N/A   Scattered Clouds
4:54 AM 61.0 °F 57.0 °F 87% 30.19 in 7.0 mi North 8.1 mph - N/A   Clear
5:54 AM 60.1 °F 55.9 °F 86% 30.20 in 8.0 mi NNW 8.1 mph - N/A   Clear
6:54 AM 59.0 °F 55.0 °F 87% 30.22 in 7.0 mi NNW 8.1 mph - N/A   Clear
7:54 AM 60.1 °F 55.0 °F 83% 30.22 in 10.0 mi North 6.9 mph - N/A   Clear
8:54 AM 64.0 °F 57.0 °F 78% 30.22 in 10.0 mi North 5.8 mph - N/A   Clear
9:54 AM 68.0 °F 57.0 °F 68% 30.22 in 10.0 mi North 9.2 mph - N/A   Clear
10:24 AM 73.4 °F 69.8 °F 88% 30.16 in 5.0 mi NW 4.6 mph - 0.00 in   Overcast
10:54 AM 71.1 °F 55.9 °F 59% 30.22 in 10.0 mi NNE 11.5 mph - N/A   Clear
11:54 AM 73.0 °F 55.9 °F 55% 30.21 in 10.0 mi North 6.9 mph - N/A   Clear
12:54 PM 73.9 °F 55.9 °F 53% 30.21 in 10.0 mi NNW 9.2 mph - N/A   Clear
1:54 PM 75.9 °F 54.0 °F 46% 30.19 in 10.0 mi NE 9.2 mph - N/A   Clear
2:54 PM 75.0 °F 52.0 °F 44% 30.19 in 10.0 mi North 5.8 mph - N/A   Clear
3:54 PM 77.0 °F 55.0 °F 47% 30.17 in 10.0 mi NE 5.8 mph - N/A   Clear
4:54 PM 75.0 °F 55.0 °F 50% 30.18 in 10.0 mi NNE 8.1 mph - N/A   Clear
5:54 PM 73.0 °F 57.9 °F 59% 30.19 in 10.0 mi NNE 5.8 mph - N/A   Clear
6:54 PM 70.0 °F 60.1 °F 71% 30.19 in 10.0 mi Calm Calm - N/A   Clear
7:54 PM 64.9 °F 60.1 °F 84% 30.18 in 10.0 mi Calm Calm - N/A   Clear
8:54 PM 62.1 °F 57.9 °F 86% 30.20 in 10.0 mi Calm Calm - N/A   Clear
9:54 PM 61.0 °F 57.0 °F 87% 30.21 in 10.0 mi Calm Calm - N/A   Clear
10:54 PM 61.0 °F 57.0 °F 87% 30.22 in 10.0 mi Calm Calm - N/A   Clear
11:54 PM 60.1 °F 55.9 °F 86% 30.21 in 8.0 mi Calm Calm - N/A   Clear